NVA1003 SAZN-SAMR

Flight info

Callsign NVA1003
Flight time 1h 21m
Altitude 18000
Route KOTOG2C KOTOG W37 ISEGA
Aircraft B190/M-SDFGRY/S

Departure

Time 2026-05-08 10:38
Airport Presidente Perón International Airport (SAZN)

Arrival

Time 2026-05-08 11:59
Airport Suboficial Ay Santiago Germano Airport (SAMR)
Time Latitude Longitude Altitude Speed Heading
2026-05-08 10:19 -38.95110 -68.13931 890 ft 0 kts 271°
2026-05-08 10:35 -38.95110 -68.13934 890 ft 1 kts 273°
2026-05-08 10:35 -38.95084 -68.13959 890 ft 9 kts 341°
2026-05-08 10:35 -38.95014 -68.14024 891 ft 13 kts 316°
2026-05-08 10:35 -38.94942 -68.14117 891 ft 8 kts 317°
2026-05-08 10:36 -38.94907 -68.14153 891 ft 6 kts 288°
2026-05-08 10:36 -38.94906 -68.14201 891 ft 0 kts 269°
2026-05-08 10:37 -38.94907 -68.14204 891 ft 0 kts 269°
2026-05-08 10:37 -38.94907 -68.14346 891 ft 49 kts 269°
2026-05-08 10:37 -38.94906 -68.15170 895 ft 126 kts 268°
2026-05-08 10:38 -38.94917 -68.16484 1062 ft 160 kts 267°
2026-05-08 10:38 -38.94894 -68.17881 1845 ft 148 kts 286°
2026-05-08 10:38 -38.94796 -68.19072 2693 ft 133 kts 264°
2026-05-08 10:38 -38.95021 -68.20309 3120 ft 150 kts 254°
2026-05-08 10:39 -38.95216 -68.21610 3820 ft 144 kts 264°
2026-05-08 10:39 -38.95468 -68.22819 4348 ft 151 kts 257°
2026-05-08 10:39 -38.95567 -68.24302 4649 ft 165 kts 262°
2026-05-08 10:39 -38.95758 -68.25550 5655 ft 136 kts 268°
2026-05-08 10:40 -38.95484 -68.26922 5677 ft 172 kts 297°
2026-05-08 10:40 -38.94867 -68.28213 6268 ft 166 kts 287°
2026-05-08 10:40 -38.94265 -68.29546 6609 ft 177 kts 312°
2026-05-08 10:40 -38.93138 -68.30248 6935 ft 185 kts 347°
2026-05-08 10:41 -38.91994 -68.30606 7785 ft 160 kts 346°
2026-05-08 10:41 -38.90866 -68.30860 8050 ft 169 kts 350°
2026-05-08 10:41 -38.89641 -68.30798 8163 ft 181 kts 11°
2026-05-08 10:41 -38.88454 -68.30324 8686 ft 168 kts 11°
2026-05-08 10:42 -38.87310 -68.29986 8913 ft 177 kts 17°
2026-05-08 10:42 -38.86063 -68.29623 9113 ft 181 kts 16°
2026-05-08 10:42 -38.84912 -68.28986 9396 ft 180 kts 21°
2026-05-08 10:42 -38.83719 -68.28428 9676 ft 179 kts 15°
2026-05-08 10:43 -38.82507 -68.28006 9953 ft 179 kts 12°
2026-05-08 10:43 -38.81249 -68.27636 10089 ft 186 kts 10°
2026-05-08 10:43 -38.79951 -68.27284 10225 ft 191 kts 10°
2026-05-08 10:43 -38.78630 -68.26936 10357 ft 195 kts
2026-05-08 10:44 -38.77262 -68.26582 10489 ft 198 kts
2026-05-08 10:44 -38.75897 -68.26229 10619 ft 200 kts
2026-05-08 10:44 -38.74502 -68.25871 10748 ft 202 kts
2026-05-08 10:44 -38.73106 -68.25511 10876 ft 203 kts
2026-05-08 10:45 -38.71686 -68.25146 11005 ft 204 kts
2026-05-08 10:45 -38.70272 -68.24785 11133 ft 206 kts
2026-05-08 10:45 -38.68848 -68.24420 11261 ft 207 kts
2026-05-08 10:45 -38.67415 -68.24052 11387 ft 208 kts
2026-05-08 10:46 -38.65971 -68.23682 11515 ft 209 kts
2026-05-08 10:46 -38.64526 -68.23309 11642 ft 209 kts 10°
2026-05-08 10:46 -38.63072 -68.22934 11769 ft 209 kts 10°
2026-05-08 10:46 -38.61634 -68.22566 11894 ft 209 kts 10°
2026-05-08 10:47 -38.60181 -68.22193 12020 ft 208 kts 10°
2026-05-08 10:47 -38.58742 -68.21824 12144 ft 208 kts 10°
2026-05-08 10:47 -38.57297 -68.21453 12270 ft 207 kts 10°
2026-05-08 10:47 -38.55874 -68.21089 12394 ft 206 kts
2026-05-08 10:48 -38.54465 -68.20728 12518 ft 205 kts
2026-05-08 10:48 -38.53052 -68.20367 12642 ft 204 kts
2026-05-08 10:48 -38.51630 -68.20005 12768 ft 203 kts
2026-05-08 10:48 -38.50243 -68.19651 12891 ft 202 kts
2026-05-08 10:49 -38.48852 -68.19296 13015 ft 201 kts
2026-05-08 10:49 -38.47466 -68.18942 13139 ft 201 kts
2026-05-08 10:49 -38.46088 -68.18588 13263 ft 200 kts
2026-05-08 10:49 -38.44687 -68.18436 13393 ft 198 kts 357°
2026-05-08 10:50 -38.43299 -68.18478 13518 ft 197 kts 356°
2026-05-08 10:50 -38.41919 -68.18536 13642 ft 196 kts 355°
2026-05-08 10:50 -38.40532 -68.18601 13767 ft 196 kts 355°
2026-05-08 10:50 -38.39163 -68.18671 13891 ft 195 kts 355°
2026-05-08 10:51 -38.37790 -68.18744 14015 ft 195 kts 355°
2026-05-08 10:51 -38.36434 -68.18817 14139 ft 194 kts 354°
2026-05-08 10:51 -38.35051 -68.18894 14266 ft 194 kts 354°
2026-05-08 10:51 -38.33686 -68.18971 14390 ft 194 kts 354°
2026-05-08 10:52 -38.32305 -68.19048 14516 ft 194 kts 354°
2026-05-08 10:52 -38.30975 -68.19123 14638 ft 193 kts 354°
2026-05-08 10:52 -38.29618 -68.19199 14762 ft 193 kts 354°
2026-05-08 10:52 -38.28249 -68.19277 14887 ft 193 kts 354°
2026-05-08 10:53 -38.26883 -68.19355 15012 ft 192 kts 354°
2026-05-08 10:53 -38.25549 -68.19431 15134 ft 192 kts 353°
2026-05-08 10:53 -38.24200 -68.19508 15258 ft 191 kts 353°
2026-05-08 10:53 -38.22848 -68.19585 15382 ft 191 kts 353°
2026-05-08 10:54 -38.21508 -68.19661 15506 ft 190 kts 353°
2026-05-08 10:54 -38.20175 -68.19737 15629 ft 189 kts 353°
2026-05-08 10:54 -38.18848 -68.19812 15751 ft 189 kts 353°
2026-05-08 10:54 -38.17517 -68.19888 15875 ft 188 kts 353°
2026-05-08 10:55 -38.16180 -68.19964 16000 ft 188 kts 353°
2026-05-08 10:55 -38.14871 -68.20038 16122 ft 187 kts 353°
2026-05-08 10:55 -38.13550 -68.20113 16245 ft 186 kts 352°
2026-05-08 10:55 -38.12257 -68.20187 16367 ft 185 kts 352°
2026-05-08 10:56 -38.10944 -68.20261 16490 ft 185 kts 352°
2026-05-08 10:56 -38.09640 -68.20335 16613 ft 184 kts 352°
2026-05-08 10:56 -38.08354 -68.20408 16735 ft 183 kts 352°
2026-05-08 10:56 -38.07062 -68.20481 16857 ft 182 kts 352°
2026-05-08 10:57 -38.05793 -68.20553 16978 ft 181 kts 352°
2026-05-08 10:57 -38.04505 -68.20626 17101 ft 180 kts 351°
2026-05-08 10:57 -38.01998 -68.20768 17343 ft 179 kts 351°
2026-05-08 10:58 -38.00736 -68.20838 17465 ft 177 kts 351°
2026-05-08 10:58 -37.99489 -68.20909 17586 ft 176 kts 351°
2026-05-08 10:58 -37.98248 -68.20979 17709 ft 176 kts 351°
2026-05-08 10:58 -37.97002 -68.21049 17834 ft 176 kts 351°
2026-05-08 10:59 -37.95768 -68.21120 17957 ft 177 kts 351°
2026-05-08 10:59 -37.94529 -68.21191 18037 ft 179 kts 350°
2026-05-08 10:59 -37.93236 -68.21268 18050 ft 183 kts 351°
2026-05-08 10:59 -37.91932 -68.21345 18052 ft 188 kts 351°
2026-05-08 11:00 -37.90582 -68.21424 18051 ft 192 kts 351°
2026-05-08 11:00 -37.89233 -68.21500 18050 ft 196 kts 351°
2026-05-08 11:00 -37.87825 -68.21580 18050 ft 199 kts 351°
2026-05-08 11:00 -37.86415 -68.21658 18049 ft 202 kts 351°
2026-05-08 11:01 -37.84980 -68.21738 18049 ft 204 kts 351°
2026-05-08 11:01 -37.83549 -68.21816 18048 ft 206 kts 351°
2026-05-08 11:01 -37.82086 -68.21898 18048 ft 208 kts 351°
2026-05-08 11:01 -37.80600 -68.21980 18047 ft 209 kts 351°
2026-05-08 11:02 -37.79132 -68.22062 18047 ft 210 kts 352°
2026-05-08 11:02 -37.76159 -68.22227 18047 ft 212 kts 352°
2026-05-08 11:02 -37.74657 -68.22311 18046 ft 213 kts 352°
2026-05-08 11:03 -37.73166 -68.22395 18047 ft 214 kts 352°
2026-05-08 11:03 -37.71660 -68.22478 18046 ft 214 kts 352°
2026-05-08 11:03 -37.70164 -68.22562 18046 ft 214 kts 352°
2026-05-08 11:03 -37.68638 -68.22648 18046 ft 215 kts 352°
2026-05-08 11:04 -37.67143 -68.22731 18046 ft 215 kts 352°
2026-05-08 11:04 -37.65618 -68.22816 18046 ft 215 kts 352°
2026-05-08 11:04 -37.64109 -68.22900 18046 ft 215 kts 352°
2026-05-08 11:04 -37.62603 -68.22984 18046 ft 216 kts 352°
2026-05-08 11:05 -37.61060 -68.23071 18046 ft 216 kts 352°
2026-05-08 11:05 -37.59547 -68.23156 18046 ft 216 kts 352°
2026-05-08 11:05 -37.58022 -68.23241 18046 ft 216 kts 352°
2026-05-08 11:05 -37.56514 -68.23325 18046 ft 216 kts 352°
2026-05-08 11:06 -37.54977 -68.23411 18046 ft 216 kts 352°
2026-05-08 11:06 -37.53462 -68.23495 18046 ft 216 kts 352°
2026-05-08 11:06 -37.51924 -68.23581 18046 ft 216 kts 352°
2026-05-08 11:06 -37.50425 -68.23665 18046 ft 216 kts 352°
2026-05-08 11:07 -37.48894 -68.23749 18046 ft 216 kts 352°
2026-05-08 11:07 -37.47369 -68.23835 18046 ft 216 kts 352°
2026-05-08 11:07 -37.45830 -68.23920 18046 ft 216 kts 352°
2026-05-08 11:07 -37.44317 -68.24005 18046 ft 216 kts 352°
2026-05-08 11:08 -37.42790 -68.24090 18046 ft 217 kts 352°
2026-05-08 11:08 -37.41270 -68.24174 18046 ft 217 kts 352°
2026-05-08 11:08 -37.39726 -68.24260 18046 ft 217 kts 352°
2026-05-08 11:08 -37.38191 -68.24345 18046 ft 217 kts 352°
2026-05-08 11:09 -37.36666 -68.24429 18046 ft 217 kts 352°
2026-05-08 11:09 -37.35152 -68.24513 18046 ft 217 kts 352°
2026-05-08 11:09 -37.33625 -68.24598 18046 ft 217 kts 352°
2026-05-08 11:09 -37.32074 -68.24684 18046 ft 217 kts 352°
2026-05-08 11:10 -37.30545 -68.24769 18045 ft 217 kts 352°
2026-05-08 11:10 -37.28996 -68.24854 18046 ft 217 kts 352°
2026-05-08 11:10 -37.27447 -68.24940 18046 ft 217 kts 352°
2026-05-08 11:10 -37.25927 -68.25024 18046 ft 217 kts 352°
2026-05-08 11:11 -37.24406 -68.25108 18046 ft 217 kts 352°
2026-05-08 11:11 -37.22873 -68.25192 18046 ft 217 kts 352°
2026-05-08 11:11 -37.21343 -68.25277 18046 ft 217 kts 352°
2026-05-08 11:11 -37.19818 -68.25361 18046 ft 217 kts 352°
2026-05-08 11:12 -37.18318 -68.25446 18045 ft 217 kts 351°
2026-05-08 11:12 -37.16792 -68.25534 18045 ft 217 kts 351°
2026-05-08 11:12 -37.15257 -68.25621 18045 ft 217 kts 351°
2026-05-08 11:12 -37.13733 -68.25707 18045 ft 217 kts 351°
2026-05-08 11:13 -37.12215 -68.25792 18045 ft 217 kts 351°
2026-05-08 11:13 -37.10699 -68.25877 18048 ft 217 kts 352°
2026-05-08 11:13 -37.09156 -68.25964 18047 ft 216 kts 352°
2026-05-08 11:13 -37.07653 -68.26051 18046 ft 215 kts 352°
2026-05-08 11:14 -37.06131 -68.26138 18046 ft 213 kts 353°
2026-05-08 11:14 -37.04650 -68.26224 18045 ft 211 kts 353°
2026-05-08 11:14 -37.03160 -68.26324 18028 ft 211 kts 359°
2026-05-08 11:14 -37.01670 -68.26479 18041 ft 210 kts
2026-05-08 11:15 -37.00187 -68.26543 18044 ft 210 kts
2026-05-08 11:15 -36.98723 -68.26596 18045 ft 212 kts
2026-05-08 11:15 -36.97232 -68.26656 18046 ft 214 kts
2026-05-08 11:15 -36.95710 -68.26722 18047 ft 216 kts
2026-05-08 11:16 -36.94172 -68.26794 18050 ft 218 kts
2026-05-08 11:16 -36.92625 -68.26872 18051 ft 220 kts
2026-05-08 11:16 -36.91076 -68.26952 18050 ft 221 kts
2026-05-08 11:16 -36.89515 -68.27036 18050 ft 222 kts
2026-05-08 11:17 -36.87958 -68.27119 18048 ft 223 kts
2026-05-08 11:17 -36.86375 -68.27205 18029 ft 225 kts
2026-05-08 11:17 -36.84798 -68.27290 18026 ft 225 kts
2026-05-08 11:17 -36.83211 -68.27377 18024 ft 226 kts
2026-05-08 11:18 -36.81613 -68.27464 18023 ft 226 kts
2026-05-08 11:18 -36.80036 -68.27550 18021 ft 226 kts
2026-05-08 11:18 -36.78435 -68.27638 18020 ft 226 kts
2026-05-08 11:18 -36.76872 -68.27724 18020 ft 226 kts
2026-05-08 11:19 -36.75255 -68.27813 18020 ft 226 kts
2026-05-08 11:19 -36.73658 -68.27901 18020 ft 227 kts
2026-05-08 11:19 -36.72062 -68.27987 18021 ft 227 kts
2026-05-08 11:19 -36.70488 -68.28073 18020 ft 227 kts
2026-05-08 11:20 -36.68903 -68.28159 18020 ft 227 kts
2026-05-08 11:20 -36.67307 -68.28246 18021 ft 227 kts
2026-05-08 11:20 -36.65693 -68.28334 18020 ft 227 kts
2026-05-08 11:20 -36.64119 -68.28419 18021 ft 227 kts
2026-05-08 11:21 -36.62503 -68.28508 18021 ft 227 kts
2026-05-08 11:21 -36.60909 -68.28594 18021 ft 227 kts
2026-05-08 11:21 -36.59314 -68.28681 18021 ft 227 kts
2026-05-08 11:21 -36.57737 -68.28767 18021 ft 227 kts
2026-05-08 11:22 -36.56117 -68.28855 18021 ft 227 kts
2026-05-08 11:22 -36.54510 -68.28942 18021 ft 227 kts
2026-05-08 11:22 -36.52920 -68.29028 18021 ft 227 kts
2026-05-08 11:22 -36.51323 -68.29115 18021 ft 227 kts
2026-05-08 11:23 -36.49752 -68.29199 18021 ft 227 kts
2026-05-08 11:23 -36.48141 -68.29287 18021 ft 227 kts
2026-05-08 11:23 -36.46537 -68.29374 18021 ft 227 kts
2026-05-08 11:23 -36.44929 -68.29461 18021 ft 227 kts
2026-05-08 11:24 -36.43357 -68.29546 18021 ft 227 kts
2026-05-08 11:24 -36.41736 -68.29633 18021 ft 227 kts
2026-05-08 11:24 -36.40141 -68.29720 18021 ft 227 kts
2026-05-08 11:24 -36.38562 -68.29806 18021 ft 227 kts
2026-05-08 11:25 -36.36961 -68.29892 18021 ft 227 kts
2026-05-08 11:25 -36.35353 -68.29978 18021 ft 227 kts
2026-05-08 11:25 -36.33749 -68.30064 18021 ft 227 kts
2026-05-08 11:25 -36.32171 -68.30150 18021 ft 228 kts
2026-05-08 11:26 -36.30576 -68.30236 18021 ft 228 kts
2026-05-08 11:26 -36.28965 -68.30323 18021 ft 228 kts
2026-05-08 11:26 -36.27373 -68.30409 18021 ft 228 kts
2026-05-08 11:26 -36.25764 -68.30496 18021 ft 228 kts
2026-05-08 11:27 -36.24178 -68.30580 18022 ft 228 kts
2026-05-08 11:27 -36.22584 -68.30666 18021 ft 228 kts
2026-05-08 11:27 -36.20972 -68.30753 18022 ft 228 kts
2026-05-08 11:27 -36.19379 -68.30838 18022 ft 228 kts
2026-05-08 11:28 -36.17782 -68.30924 18022 ft 228 kts
2026-05-08 11:28 -36.16173 -68.31011 18022 ft 228 kts
2026-05-08 11:28 -36.14584 -68.31097 18022 ft 228 kts
2026-05-08 11:28 -36.12993 -68.31182 18023 ft 228 kts
2026-05-08 11:29 -36.11391 -68.31267 18024 ft 228 kts
2026-05-08 11:29 -36.09782 -68.31354 18025 ft 228 kts
2026-05-08 11:29 -36.08192 -68.31439 18026 ft 228 kts
2026-05-08 11:29 -36.06617 -68.31523 18027 ft 228 kts
2026-05-08 11:30 -36.04991 -68.31611 18028 ft 228 kts
2026-05-08 11:30 -36.03390 -68.31696 18029 ft 228 kts
2026-05-08 11:30 -36.01796 -68.31782 18030 ft 228 kts
2026-05-08 11:30 -36.00206 -68.31866 18031 ft 228 kts
2026-05-08 11:31 -35.98590 -68.31953 18031 ft 228 kts
2026-05-08 11:31 -35.96992 -68.32039 18031 ft 228 kts
2026-05-08 11:31 -35.95401 -68.32124 18031 ft 228 kts
2026-05-08 11:31 -35.93816 -68.32209 18031 ft 228 kts
2026-05-08 11:32 -35.92190 -68.32296 18031 ft 229 kts
2026-05-08 11:32 -35.90593 -68.32381 18031 ft 229 kts
2026-05-08 11:32 -35.88995 -68.32465 18029 ft 229 kts
2026-05-08 11:32 -35.87402 -68.32551 18029 ft 229 kts
2026-05-08 11:33 -35.85788 -68.32636 18029 ft 229 kts
2026-05-08 11:33 -35.84187 -68.32722 18029 ft 228 kts
2026-05-08 11:33 -35.82566 -68.32809 18029 ft 228 kts
2026-05-08 11:33 -35.80958 -68.32894 18031 ft 228 kts
2026-05-08 11:34 -35.79378 -68.32978 18033 ft 228 kts
2026-05-08 11:34 -35.77764 -68.33064 18035 ft 228 kts
2026-05-08 11:34 -35.76171 -68.33149 18037 ft 228 kts
2026-05-08 11:34 -35.74557 -68.33234 18039 ft 228 kts
2026-05-08 11:35 -35.72973 -68.33319 18041 ft 228 kts
2026-05-08 11:35 -35.71359 -68.33405 18043 ft 228 kts
2026-05-08 11:35 -35.69751 -68.33490 18045 ft 228 kts
2026-05-08 11:35 -35.68135 -68.33575 18047 ft 228 kts
2026-05-08 11:36 -35.66515 -68.33662 18048 ft 229 kts
2026-05-08 11:36 -35.64940 -68.33745 18048 ft 229 kts
2026-05-08 11:36 -35.63316 -68.33796 18048 ft 228 kts
2026-05-08 11:36 -35.61706 -68.33841 18048 ft 229 kts
2026-05-08 11:37 -35.60117 -68.33901 18048 ft 229 kts
2026-05-08 11:37 -35.58517 -68.33973 18048 ft 229 kts
2026-05-08 11:37 -35.56881 -68.34052 18048 ft 229 kts
2026-05-08 11:37 -35.55286 -68.34134 18048 ft 229 kts
2026-05-08 11:38 -35.53671 -68.34219 18048 ft 229 kts
2026-05-08 11:38 -35.52063 -68.34304 18048 ft 229 kts
2026-05-08 11:38 -35.50442 -68.34390 18048 ft 229 kts
2026-05-08 11:38 -35.48840 -68.34476 18048 ft 229 kts
2026-05-08 11:39 -35.47230 -68.34563 18048 ft 229 kts
2026-05-08 11:39 -35.45612 -68.34650 18048 ft 229 kts
2026-05-08 11:39 -35.44017 -68.34737 18048 ft 229 kts
2026-05-08 11:39 -35.42379 -68.34826 18048 ft 230 kts
2026-05-08 11:40 -35.40776 -68.34912 18048 ft 230 kts
2026-05-08 11:40 -35.39153 -68.35000 18048 ft 230 kts
2026-05-08 11:40 -35.37566 -68.35086 18049 ft 230 kts
2026-05-08 11:40 -35.35930 -68.35175 18048 ft 230 kts
2026-05-08 11:41 -35.34327 -68.35261 18049 ft 230 kts
2026-05-08 11:41 -35.32705 -68.35349 18049 ft 230 kts
2026-05-08 11:41 -35.31094 -68.35435 18049 ft 230 kts
2026-05-08 11:41 -35.29481 -68.35523 18049 ft 230 kts
2026-05-08 11:42 -35.27868 -68.35609 18049 ft 230 kts
2026-05-08 11:42 -35.26257 -68.35696 18049 ft 230 kts
2026-05-08 11:42 -35.24607 -68.35783 17896 ft 237 kts
2026-05-08 11:42 -35.22912 -68.35871 17711 ft 244 kts
2026-05-08 11:43 -35.21198 -68.35962 17523 ft 249 kts
2026-05-08 11:43 -35.19421 -68.36057 17330 ft 253 kts
2026-05-08 11:43 -35.17632 -68.36155 17136 ft 256 kts
2026-05-08 11:43 -35.15836 -68.36253 16943 ft 258 kts
2026-05-08 11:44 -35.14004 -68.36352 16745 ft 260 kts
2026-05-08 11:44 -35.12174 -68.36452 16548 ft 261 kts
2026-05-08 11:44 -35.10337 -68.36552 16351 ft 262 kts
2026-05-08 11:44 -35.08521 -68.36650 16155 ft 262 kts
2026-05-08 11:45 -35.06652 -68.36771 15955 ft 263 kts 360°
2026-05-08 11:45 -35.04814 -68.36907 15756 ft 263 kts 360°
2026-05-08 11:45 -35.02966 -68.37026 15557 ft 263 kts
2026-05-08 11:45 -35.01120 -68.37130 15358 ft 262 kts
2026-05-08 11:46 -34.99284 -68.37228 15159 ft 261 kts
2026-05-08 11:46 -34.97437 -68.37328 14956 ft 260 kts 360°
2026-05-08 11:46 -34.95632 -68.37425 14756 ft 259 kts 359°
2026-05-08 11:46 -34.93823 -68.37521 14554 ft 258 kts 359°
2026-05-08 11:47 -34.92000 -68.37618 14349 ft 257 kts 359°
2026-05-08 11:47 -34.90192 -68.37716 14089 ft 259 kts 358°
2026-05-08 11:47 -34.88418 -68.37801 13746 ft 262 kts 357°
2026-05-08 11:47 -34.86602 -68.37905 13400 ft 264 kts 356°
2026-05-08 11:48 -34.84752 -68.38012 13050 ft 266 kts 357°
2026-05-08 11:48 -34.82885 -68.38116 12699 ft 268 kts 357°
2026-05-08 11:48 -34.81027 -68.38216 12351 ft 269 kts 357°
2026-05-08 11:48 -34.79176 -68.38312 11988 ft 260 kts 357°
2026-05-08 11:49 -34.77423 -68.38404 11629 ft 250 kts 357°
2026-05-08 11:49 -34.75706 -68.38497 11268 ft 242 kts 357°
2026-05-08 11:49 -34.74053 -68.38586 10913 ft 236 kts 357°
2026-05-08 11:49 -34.72440 -68.38673 10559 ft 232 kts 357°
2026-05-08 11:50 -34.70818 -68.38758 10193 ft 224 kts 357°
2026-05-08 11:50 -34.69331 -68.38836 9835 ft 212 kts 357°
2026-05-08 11:50 -34.67923 -68.38910 9473 ft 201 kts 356°
2026-05-08 11:50 -34.66553 -68.38982 9107 ft 191 kts 356°
2026-05-08 11:51 -34.65261 -68.39053 8743 ft 183 kts 356°
2026-05-08 11:51 -34.64003 -68.39119 8377 ft 175 kts 356°
2026-05-08 11:51 -34.62807 -68.39183 8020 ft 170 kts 356°
2026-05-08 11:51 -34.61635 -68.39242 7665 ft 166 kts 356°
2026-05-08 11:52 -34.60556 -68.39284 7395 ft 146 kts
2026-05-08 11:52 -34.59653 -68.38683 7029 ft 155 kts 48°
2026-05-08 11:52 -34.59336 -68.37425 6703 ft 168 kts 87°
2026-05-08 11:52 -34.59466 -68.35918 6396 ft 187 kts 95°
2026-05-08 11:53 -34.59679 -68.34300 6064 ft 199 kts 95°
2026-05-08 11:53 -34.59898 -68.32625 5726 ft 205 kts 96°
2026-05-08 11:53 -34.60123 -68.30914 5385 ft 208 kts 96°
2026-05-08 11:53 -34.60352 -68.29163 5027 ft 209 kts 95°
2026-05-08 11:54 -34.60578 -68.27390 4653 ft 211 kts 97°
2026-05-08 11:54 -34.60798 -68.25658 4511 ft 203 kts 97°
2026-05-08 11:54 -34.61017 -68.24028 4489 ft 200 kts 94°
2026-05-08 11:55 -34.61875 -68.20865 4494 ft 195 kts 139°
2026-05-08 11:55 -34.63084 -68.20277 4398 ft 195 kts 180°
2026-05-08 11:55 -34.64195 -68.20693 4300 ft 188 kts 219°
2026-05-08 11:55 -34.64880 -68.21994 4122 ft 181 kts 263°
2026-05-08 11:56 -34.64749 -68.23514 3917 ft 183 kts 287°
2026-05-08 11:56 -34.64300 -68.24994 3691 ft 188 kts 291°
2026-05-08 11:56 -34.63791 -68.26454 3440 ft 183 kts 293°
2026-05-08 11:56 -34.63280 -68.27811 3135 ft 165 kts 294°
2026-05-08 11:57 -34.62844 -68.28915 2952 ft 135 kts 296°
2026-05-08 11:57 -34.62485 -68.29883 2791 ft 118 kts 294°
2026-05-08 11:57 -34.62130 -68.30819 2802 ft 129 kts 293°
2026-05-08 11:57 -34.61719 -68.31888 2820 ft 144 kts 294°
2026-05-08 11:58 -34.61283 -68.33037 2744 ft 153 kts 296°
2026-05-08 11:58 -34.60838 -68.34199 2686 ft 151 kts 295°
2026-05-08 11:58 -34.60397 -68.35360 2683 ft 144 kts 292°
2026-05-08 11:59 -34.59577 -68.37528 2633 ft 141 kts 292°
2026-05-08 11:59 -34.59219 -68.38656 2512 ft 135 kts 293°
2026-05-08 11:59 -34.58949 -68.39642 2451 ft 105 kts 289°
2026-05-08 11:59 -34.58794 -68.40179 2462 ft 33 kts 289°
2026-05-08 12:00 -34.58767 -68.40292 2464 ft 5 kts 108°
2026-05-08 12:00 -34.58782 -68.40232 2463 ft 11 kts 107°
2026-05-08 12:00 -34.58821 -68.40085 2461 ft 18 kts 106°
2026-05-08 12:00 -34.58904 -68.40041 2460 ft 15 kts 200°
2026-05-08 12:01 -34.58990 -68.40081 2462 ft 11 kts 200°
2026-05-08 12:01 -34.59047 -68.40041 2462 ft 12 kts 106°
2026-05-08 12:01 -34.59080 -68.40012 2461 ft 3 kts 205°
2026-05-08 12:01 -34.59089 -68.40026 2462 ft 2 kts 253°
2026-05-08 12:02 -34.59076 -68.40058 2463 ft 3 kts 341°
2026-05-08 12:02 -34.59069 -68.40060 2463 ft 0 kts 353°